CW8822 Caguas PR US current weather conditions

sailwx.info

Wind from 092

Air temperature 25.0° C
Dewpoint 22.9° C

Last reported at 2017-Aug-23 02:01 UTC.
Time now 2017-Aug-23 02:19 UTC

Location: N 18°12' W 066°01'.
View on Google Maps.

See reports from other nearby stations

  
Tides and Currents Weather Stations Pressure Air Temp Water Temp Dewpoint Dewpoint Depression Visibility Wind Speed Wind Dir Waves Ship Positions
date/time (UTC)wind fromknots sea level pressurealtimeterstation pressurevisibilityair tempwater tempwave heightnotes
2017-Aug-23 02:01 092 25.0
2017-Aug-23 01:46 092 25.0
2017-Aug-23 01:32 092 25.0
2017-Aug-23 01:17 092 25.0
2017-Aug-23 01:01 092 25.0
2017-Aug-23 00:46 092 25.0
2017-Aug-23 00:31 092 25.0
2017-Aug-23 00:16 092 25.0
2017-Aug-23 00:00 092 25.0
2017-Aug-22 23:46 092 24.4
2017-Aug-22 23:31 092 24.4
2017-Aug-22 23:15 092 24.4
2017-Aug-22 23:00 092 24.4
2017-Aug-22 22:46 092 24.4
2017-Aug-22 22:31 092 25.0
2017-Aug-22 22:15 092 25.0
2017-Aug-22 22:00 092 25.0
2017-Aug-22 21:46 092 25.0
2017-Aug-22 21:30 092 25.6
2017-Aug-22 21:15 092 26.1
2017-Aug-22 21:00 094 25.6
2017-Aug-22 20:45 107 25.6
2017-Aug-22 20:30 107 25.6
2017-Aug-22 20:16 074 25.6
2017-Aug-22 19:59 117 25.0
2017-Aug-22 19:45 107 25.6
2017-Aug-22 19:30 130 1 gusting 6 28.3
2017-Aug-22 19:15 067 1 gusting 6 30.0
2017-Aug-22 18:59 047 30.0
2017-Aug-22 18:44 148 29.4
2017-Aug-22 18:30 148 28.9
2017-Aug-22 18:15 132 0 gusting 4 28.9
2017-Aug-22 17:59 069 28.3
2017-Aug-22 17:45 071 27.8
2017-Aug-22 17:28 325 29.4
2017-Aug-22 17:14 011 28.9
2017-Aug-22 16:59 355 28.3
2017-Aug-22 16:43 036 27.2
2017-Aug-22 16:29 312 1 gusting 6 28.9
2017-Aug-22 16:14 005 30.0
2017-Aug-22 15:58 053 31.1
2017-Aug-22 15:43 055 30.0
2017-Aug-22 15:29 044 30.0
2017-Aug-22 15:13 065 31.1
2017-Aug-22 14:59 042 30.0
2017-Aug-22 14:43 076 28.9
2017-Aug-22 14:13 053 29.4
2017-Aug-22 13:59 163 30.0
2017-Aug-22 13:43 073 28.9
2017-Aug-22 13:28 067 28.3
2017-Aug-22 13:12 066 0 gusting 4 27.8
2017-Aug-22 12:58 066 27.2
2017-Aug-22 12:42 070 26.7
2017-Aug-22 12:27 070 26.1
2017-Aug-22 12:11 070 25.6
2017-Aug-22 11:57 015 25.0
2017-Aug-22 11:43 024 24.4
2017-Aug-22 11:27 325 23.9
2017-Aug-22 11:11 360 23.9
2017-Aug-22 10:57 011 23.9
2017-Aug-22 10:41 011 23.9
2017-Aug-22 10:27 340 23.9
2017-Aug-22 10:12 340 23.9
2017-Aug-22 09:56 086 23.9
2017-Aug-22 09:41 087 23.9
2017-Aug-22 09:27 086 23.9
2017-Aug-22 09:10 086 23.3
2017-Aug-22 08:56 086 23.9
2017-Aug-22 08:41 086 23.3
2017-Aug-22 08:27 086 23.9
2017-Aug-22 08:10 086 23.9
2017-Aug-22 07:55 087 23.9
2017-Aug-22 07:41 086 23.9
2017-Aug-22 07:26 087 23.9
2017-Aug-22 07:10 086 23.9
2017-Aug-22 06:55 086 23.9
2017-Aug-22 06:41 086 24.4
2017-Aug-22 06:25 086 23.9
2017-Aug-22 06:10 086 23.9
2017-Aug-22 05:56 086 23.9
2017-Aug-22 05:40 086 23.9
2017-Aug-22 05:25 086 24.4
2017-Aug-22 05:11 086 24.4
2017-Aug-22 04:55 086 24.4
2017-Aug-22 04:40 086 24.4
2017-Aug-22 04:25 086 24.4
2017-Aug-22 04:10 086 24.4
2017-Aug-22 03:54 086 24.4
2017-Aug-22 03:40 086 25.0
2017-Aug-22 03:31 086 25.0
2017-Aug-22 03:09 086 25.0
2017-Aug-22 02:54 086 25.0
2017-Aug-22 02:40 086 25.0
2017-Aug-22 02:24 086 25.0
2017-Aug-22 02:09 086 25.0
2017-Aug-22 01:54 086 25.0
2017-Aug-22 01:38 086 25.6
2017-Aug-22 01:24 087 25.6
2017-Aug-22 01:09 085 25.6
2017-Aug-22 00:54 085 25.6
2017-Aug-22 00:39 084 25.6
2017-Aug-22 00:23 083 25.6
2017-Aug-22 00:08 086 25.6
2017-Aug-21 23:54 086 25.6
2017-Aug-21 23:38 084 25.6
2017-Aug-21 23:23 084 26.1
2017-Aug-21 23:08 084 26.1
2017-Aug-21 22:54 138 26.1
2017-Aug-21 22:38 138 26.7
2017-Aug-21 22:23 158 26.7
2017-Aug-21 22:09 153 26.7
2017-Aug-21 21:52 164 27.2
2017-Aug-21 21:38 145 27.8
2017-Aug-21 21:24 080 28.3
2017-Aug-21 21:07 103 28.3
2017-Aug-21 20:53 066 28.3
2017-Aug-21 20:38 072 1 gusting 9 27.8
2017-Aug-21 20:23 053 27.8
2017-Aug-21 20:08 099 27.2
2017-Aug-21 19:52 101 27.2
2017-Aug-21 19:37 097 27.8
2017-Aug-21 19:23 111 27.8
2017-Aug-21 19:06 072 28.3
2017-Aug-21 18:53 114 28.3
2017-Aug-21 18:37 112 28.9
2017-Aug-21 18:21 143 28.9
2017-Aug-21 18:07 035 29.4
2017-Aug-21 17:52 095 30.6
2017-Aug-21 17:36 029 30.0
2017-Aug-21 17:21 063 30.6
2017-Aug-21 17:07 139 31.1
2017-Aug-21 16:51 097 31.1
2017-Aug-21 16:36 111 31.1
2017-Aug-21 16:22 079 30.6
2017-Aug-21 16:06 112 0 gusting 6 30.6
2017-Aug-21 15:52 044 30.6
2017-Aug-21 15:37 014 1 gusting 7 30.0
2017-Aug-21 15:20 071 2 gusting 9 29.4
2017-Aug-21 15:06 044 3 gusting 8 28.9
2017-Aug-21 14:51 200 28.9
2017-Aug-21 14:35 032 0 gusting 7 28.9
2017-Aug-21 14:21 085 0 gusting 8 28.3
2017-Aug-21 14:05 061 27.8
2017-Aug-21 13:50 067 27.8
2017-Aug-21 13:34 048 27.2
2017-Aug-21 13:20 005 26.7
2017-Aug-21 13:06 005 26.1
2017-Aug-21 12:50 005 26.1
2017-Aug-21 12:34 005 25.6
2017-Aug-21 12:20 005 24.4
2017-Aug-21 12:04 005 24.4
2017-Aug-21 11:50 005 24.4
2017-Aug-21 11:34 005 23.9
2017-Aug-21 11:20 005 23.9
2017-Aug-21 11:04 005 23.9
2017-Aug-21 10:49 005 23.3
2017-Aug-21 10:35 005 23.3
2017-Aug-21 10:19 005 23.3
2017-Aug-21 10:04 107 23.3
2017-Aug-21 09:48 125 23.3
2017-Aug-21 09:33 126 23.3
2017-Aug-21 09:19 125 23.3
2017-Aug-21 09:03 125 23.3
2017-Aug-21 08:49 125 23.3
2017-Aug-21 08:34 125 23.3
2017-Aug-21 08:18 125 23.3
2017-Aug-21 08:03 125 23.3
2017-Aug-21 07:48 125 23.3
2017-Aug-21 07:33 125 23.9
2017-Aug-21 07:17 125 23.3
2017-Aug-21 07:03 125 23.3
2017-Aug-21 06:48 125 23.9
2017-Aug-21 06:32 125 23.3
2017-Aug-21 06:17 132 23.3
2017-Aug-21 06:03 132 23.3
2017-Aug-21 05:47 132 23.3
2017-Aug-21 05:32 132 23.3
2017-Aug-21 05:18 132 23.3
2017-Aug-21 05:02 132 23.3
2017-Aug-21 04:47 132 23.3
2017-Aug-21 04:33 132 23.3
2017-Aug-21 04:17 132 23.9
2017-Aug-21 04:02 132 23.9
2017-Aug-21 03:47 134 23.9
2017-Aug-21 03:31 134 23.9
2017-Aug-21 03:17 135 23.9
2017-Aug-21 03:02 148 23.3
2017-Aug-21 02:46 148 23.9
2017-Aug-21 02:31 148 23.9
2017-Aug-21 02:17 148 23.9
2017-Aug-21 02:02 148 23.9